Weather History for PAOM - December, 2012

Change the Weather History Date:

Sunday, December 30, 2012

  Actual Average Record
Temperature  
Mean Temperature 29 °F -  
Max Temperature 34 °F 15 °F 36 °F (1985)
Min Temperature 24 °F -1 °F -38 °F (1974)
Degree Days  
Heating Degree Days 36 58  
Month to date heating degree days 1877 1662  
Since 1 July heating degree days 6092 5760  
Cooling Degree Days 0    
Month to date cooling degree days 0  
Year to date cooling degree days 0  
Moisture  
Dew Point 22 °F    
Average Humidity 0    
Maximum Humidity 0    
Minimum Humidity 0    
Precipitation  
Precipitation T in 0.03 in 0.75 in (1946)
Month to date precipitation 0.54 1.04  
Year to date precipitation 18.67 16.77  
Snow  
Snow T in 0.50 in 6.70 in (1946)
Month to date snowfall 13.9 14.0  
Since 1 July snowfall 16.5 31.3  
Snow Depth 14.00 in    
Sea Level Pressure  
Sea Level Pressure 29.09 in    
Wind  
Wind Speed 15 mph (NNE)    
Max Wind Speed 36 mph    
Max Gust Speed 45 mph    
Visibility 9 miles    
Events Snow    
T = Trace of Precipitation, MM = Missing Value Source: NWS Daily Summary

Daily Weather History Graph

Daily Weather History Graph

Search for Another Location

Airport or City:

Trip Planner

Search our weather history database for the weather conditions in past years. The results will help you decide how hot, cold, wet, or windy it might be!

Date:

Astronomy

Dec. 30, 2012 Rise Set
Actual Time 12:00 PM AKST 4:08 PM AKST
Civil Twilight 10:40 AM AKST 5:28 PM AKST
Nautical Twilight 9:31 AM AKST 6:38 PM AKST
Astronomical Twilight 8:30 AM AKST 7:38 PM AKST
Moon 8:18 PM AKST (12/30) 11:57 AM AKST (12/30)
Length of Visible Light 6h 47m
Length of Day
4h 07m
Waning Gibbous, 94% of the Moon is Illuminated
Dec 30
Waning Gibbous
Jan 4
Last Quarter
Jan 11
New
Jan 18
First Quarter
Jan 26
Full

Hourly Weather History & Observations

Time (AKST) Temp. Windchill Dew Point Humidity Pressure Visibility Wind Dir Wind Speed Gust Speed Precip Events Conditions
12:53 AM 28.9 °F 18.6 °F 24.1 °F 82% 29.25 in 10.0 mi ENE 12.7 mph 18.4 mph N/A   Overcast
1:09 AM 28.4 °F 18.0 °F 24.8 °F 86% 29.24 in 6.0 mi East 12.7 mph - 0.00 in Snow Light Snow
1:51 AM 28.4 °F 17.5 °F 24.8 °F 86% 29.24 in 10.0 mi ENE 13.8 mph 17.3 mph 0.00 in   Overcast
1:53 AM 28.9 °F 19.8 °F 25.0 °F 85% 29.25 in 10.0 mi NE 10.4 mph 17.3 mph 0.00 in   Overcast
2:53 AM 28.0 °F 18.6 °F 24.1 °F 85% 29.23 in 10.0 mi NE 10.4 mph - N/A   Overcast
3:32 AM 26.6 °F 15.2 °F 21.2 °F 80% 29.22 in 10.0 mi NNE 13.8 mph - N/A   Scattered Clouds
3:53 AM 27.0 °F 15.2 °F 19.9 °F 75% 29.21 in 10.0 mi NNE 15.0 mph - N/A   Clear
4:53 AM 25.0 °F 15.5 °F 21.0 °F 85% 29.19 in 10.0 mi North 9.2 mph - N/A   Scattered Clouds
5:53 AM 26.1 °F 16.2 °F 21.0 °F 81% 29.17 in 10.0 mi North 10.4 mph - N/A   Mostly Cloudy
6:53 AM 27.0 °F 18.0 °F 21.0 °F 78% 29.15 in 10.0 mi NNE 9.2 mph - N/A   Mostly Cloudy
7:53 AM 28.9 °F 15.1 °F 21.0 °F 72% 29.11 in 10.0 mi NNE 23.0 mph 28.8 mph N/A   Mostly Cloudy
8:53 AM 32.0 °F 19.8 °F 23.0 °F 69% 29.07 in 10.0 mi NNE 20.7 mph 27.6 mph N/A   Mostly Cloudy
9:53 AM 33.1 °F 20.6 °F 21.9 °F 64% 29.06 in 10.0 mi NNE 23.0 mph 28.8 mph N/A   Overcast
10:53 AM 32.0 °F 19.5 °F 21.9 °F 66% 29.03 in 10.0 mi NNE 21.9 mph 32.2 mph N/A   Overcast
11:53 AM 32.0 °F 18.4 °F 21.9 °F 66% 29.01 in 10.0 mi NNE 26.5 mph 29.9 mph N/A   Overcast
12:53 PM 30.9 °F 19.1 °F 21.9 °F 69% 29.00 in 10.0 mi North 18.4 mph 31.1 mph N/A   Overcast
1:53 PM 28.9 °F 12.5 °F 25.0 °F 85% 28.98 in 1.2 mi North 34.5 mph 44.9 mph N/A Snow Light Snow
2:53 PM 30.0 °F 16.0 °F 23.0 °F 75% 28.98 in 4.0 mi North 25.3 mph 34.5 mph 0.00 in Snow Blowing Snow
3:53 PM 30.0 °F 17.2 °F 21.0 °F 69% 28.99 in 10.0 mi North 20.7 mph 33.4 mph N/A Snow Blowing Snow
4:53 PM 30.0 °F 15.7 °F 21.9 °F 72% 28.98 in 10.0 mi NNE 26.5 mph 36.8 mph 0.00 in Snow Light Snow
5:53 PM 30.9 °F 19.1 °F 21.0 °F 67% 28.99 in 10.0 mi NNE 18.4 mph 25.3 mph 0.00 in   Overcast
6:53 PM 32.0 °F 20.1 °F 19.9 °F 61% 28.99 in 10.0 mi NE 19.6 mph 24.2 mph N/A   Overcast
7:53 PM 30.0 °F 17.5 °F 19.9 °F 66% 29.00 in 10.0 mi NE 19.6 mph - N/A   Overcast
8:53 PM 28.0 °F 24.2 °F 19.0 °F 69% 29.01 in 10.0 mi ENE 3.5 mph - N/A   Scattered Clouds
9:53 PM 27.0 °F 17.3 °F 18.0 °F 69% 29.03 in 10.0 mi NNE 10.4 mph - N/A   Scattered Clouds
10:53 PM 24.1 °F 13.1 °F 16.0 °F 71% 29.05 in 10.0 mi NNE 11.5 mph 16.1 mph N/A   Mostly Cloudy
11:53 PM 26.1 °F 15.6 °F 17.1 °F 69% 29.08 in 10.0 mi NNE 11.5 mph - N/A   Overcast